CAPELLA-13 (ACADIA)

Satellite information

Favourite Embed

Satellite Type and Status

PAYLOADIN ORBIT

Key statistics

Satellite CAPELLA-13 (ACADIA) at a glance.

Uptime

449

Days in orbit

Revolutions

≈ 14.9

Per day

Orbit

LEO

Low Earth Orbit

Inclination

53.0

Latest

Satellite identification and parameters

Extended collection of information and parameters for CAPELLA-13 (ACADIA).

Object identification

Identified? True

Debris? False

Object name: CAPELLA-13 (ACADIA)

International designator: 2024-142A

Object number (NORAD): 60419

Object ID (CCSDS): 60419

Country: UNITED STATES OF AMERICA (US)

Current information (Y/N): Y

RCS size: LARGE

Orbital parameters

Period: 96.797 minutes

Inclination: 53.0046 deg

SMA: 6983.402 km

Apoapsis: 606.368 km

Periapsis: 604.166 km

RAAN: 332.08 deg

Eccentricy: 0.0001576

Argument of periapsis: 93.2985 deg

Mean anomaly: 266.8175 deg

Mean motion: 14.87654922 rev/day

Mean motion (dot): 0.00007942 rev/day2

B* drag term: 0.00088924832 1/REarth

Two-line elements (TLE)

Creation date: Nov. 1, 2025, 7:40 p.m.

Reference frame: TEME

Reference center: EARTH

Epoch: Nov. 1, 2025, 8:20 a.m. UTC

TLE line 0: 0 CAPELLA-13 (ACADIA)

TLE line 1: 1 60419U 24142A 25305.34748843 .00007942 00000-0 88925-3 0 9996

TLE line 2: 2 60419 53.0046 332.0800 0001576 93.2985 266.8175 14.87654922 66499

Live tracking on map

Real-time ground track for satellite CAPELLA-13 (ACADIA).

In-orbit conjunctions

There are no conjunctions computed for CAPELLA-13 (ACADIA), at the moment. Check back to stay up to date, as we update our databases every day.

Go to all conjunctions

Associated space launch

Payload consists of a single SAR Earth-imaging Acadia satellite, a new generation satellite designed, manufactured, and operated by Capella Space.

CAPELLA-13 (ACADIA) was lifted into orbit during the mission ‘Electron | A Sky Full of SARs (Capella Acadia 3)’, on board a Electron space rocket.

The launch took place on Aug. 11, 2024, 1:18 p.m. from Rocket Lab Launch Complex 1B.

For more information about the launch, click the button.

Launch to space Electron | A Sky Full of SARs (Capella Acadia 3)
Electron | A Sky Full of SARs (Capella Acadia 3)

Agency: Capella Space

Status: Launch Successful

Launch date: Aug. 11, 2024, 1:18 p.m. UTC

Rocket: Electron

Launch pad: Rocket Lab Launch Complex 1B

Location: Rocket Lab Launch Complex 1, Mahia Peninsula, New Zealand

...

Latest news about this satellite

News about space launch
Rocket Lab launches Capella Space SAR satellite

Rocket Lab launched a Capella Space radar imaging satellite Aug. 11 on a mission that illustrated the flexibility offered by, but also the challenges facing, small launch vehicles.


Newsletter sign-up

Weekly statistics, charts and insights to help you stay on top of the space industry.